Starlink 6163

operational
NORAD ID: 57128 Int'l Des: 2023-090 Owner: SPXS Country: US Constellation: starlink
LEOCIRCULAR

关于 Starlink 6163

正在加载描述...

实时位置

正在加载3D地球...

即将过境

高度历史

Altitude vs Time

uPlot chart will show altitude changes over time

两行轨道根数

1 57128U 23090AD 25312.74444708 .00000520 00000-0 53530-4 0 9995
2 57128 43.0025 211.5230 0001994 277.1974 82.8641 15.02548699132030
Epoch: Nov 8, 2025 • Age: 23 hours

当前状态

高度 566.7 km
速度 7.58 km/s
星下点 -31.04°S, 118.77°E
发射日期 Jun 23, 2023
运行时间 2.3 years
类型 internet

技术详情

分类 Payload
质量 305.00 kg
干质量 290.00 kg
总质量 305.00 kg
长度 0.20 m
直径 2.80 m
跨度 9.00 m
形状 Box + pan
制造商 SPXS
平台类型 Starlink
阶段状态 In Orbit
所有者/国家 SPXS/US

大型星座

Loading constellations...